Regional Weather Roundup
Issued by NWS

Home | Current Version | Previous Version | Graphics & Text | Print | Product List | Glossary On
Versions: 1 2 3 4 5 6 7 8 9 10 11 12 13 14 15 16 17 18 19 20 21 22 23 24 25 26 27 28 29 30 31 32 33 34 35 36 37 38 39 40 41 42 43 44 45 46 47 48 49 50
000
ASUS43 KOAX 282002
RWRNE

WEATHER ROUNDUP FOR NEBRASKA
NATIONAL WEATHER SERVICE OMAHA NE
300 PM CDT WED SEP 28 2016

NOTES: SATELLITE DATA IS BEING USED TO AUGMENT CLOUD COVER ABOVE
       12000 FEET.
       "FAIR" INDICATES FEW OR NO CLOUDS BELOW 12,000 FEET WITH NO
       SIGNIFICANT WEATHER AND/OR OBSTRUCTIONS TO VISIBILITY.

  * THESE STATIONS DO NOT REPORT WEATHER SUCH AS RAIN...SNOW OR FOG.

NEZ001>004-019>022-054>056-282100-
NEBRASKA PANHANDLE

CITY           SKY/WX    TMP DP  RH WIND       PRES   REMARKS
SCOTTSBLUFF    SUNNY     79  42  26 E6        30.27F
ALLIANCE       SUNNY     80  39  23 CALM      30.26F
CHADRON        SUNNY     82  41  23 N7        30.23F
KIMBALL        SUNNY     76  42  29 N9        30.32F
SIDNEY         SUNNY     79  38  22 SE3       30.30F
$$

NEZ057>060-069>072-079>082-282100-
SOUTHWEST NEBRASKA

CITY           SKY/WX    TMP DP  RH WIND       PRES   REMARKS
NORTH PLATTE   SUNNY     79  42  26 NE14G21   30.23S
IMPERIAL       SUNNY     81  33  17 NE9       30.24S
LEXINGTON      SUNNY     75  36  24 N14       30.22S
MCCOOK         SUNNY     80  44  27 NE9       30.20F
OGALLALA       SUNNY     83  35  17 NE3       30.24S
$$

NEZ005>010-023>029-035>040-094-282100-
NORTH CENTRAL NEBRASKA

CITY           SKY/WX    TMP DP  RH WIND       PRES   REMARKS
VALENTINE      SUNNY     72  37  28 E13       30.26S
AINSWORTH      SUNNY     70  33  25 NE12G18   30.25F
BROKEN BOW     SUNNY     73  27  18 N8G18     30.23F
O`NEILL        SUNNY     65  42  42 NE7       30.26S
ORD            SUNNY     70  43  37 N14       30.22S
THEDFORD       SUNNY     76  45  32 N9G18     30.25F
$$

NEZ041-046>049-061>064-073>077-083>087-282100-
SOUTH CENTRAL NEBRASKA

CITY           SKY/WX    TMP DP  RH WIND       PRES   REMARKS
GRAND ISLAND   SUNNY     69  44  40 N12G17    30.22S
AURORA         SUNNY     67  43  42 N9        30.21S
HASTINGS       SUNNY     70  45  40 N14G24    30.22S
HEBRON         SUNNY     69  42  37 N13G20    30.19S
HOLDREGE       SUNNY     73  29  19 N13G18    30.22S
KEARNEY *      SUNNY     73  28  19 N18       30.21S
YORK           SUNNY     66  45  45 NE12G18   30.21S
$$

NEZ011>018-030>034-042>045-282100-
NORTHEAST NEBRASKA

CITY           SKY/WX    TMP DP  RH WIND       PRES   REMARKS
NORFOLK        SUNNY     66  42  41 N9        30.23S
ALBION         SUNNY     67  43  42 N7        30.23F
BLAIR          SUNNY     63  48  57 N12       30.20S
FREMONT        SUNNY     65  44  47 N10G16    30.21S
TEKAMAH        SUNNY     64  46  52 N14G22    30.22S
WAYNE          SUNNY     65  46  51 N10       30.24S
$$

NEZ050>053-065>068-078-088>093-282100-
SOUTHEAST NEBRASKA

CITY           SKY/WX    TMP DP  RH WIND       PRES   REMARKS
LINCOLN        SUNNY     68  44  42 N16G24    30.20F
OMAHA EPPLEY   MOSUNNY   65  46  50 N13       30.20S
BEATRICE       SUNNY     68  46  45 N12       30.19R
FALLS CITY     SUNNY     66  47  50 N13G20    30.16R
NEBRASKA CITY  SUNNY     64  40  41 N14       30.19S
PLATTSMOUTH    SUNNY     64  43  47 N7        30.19S
$$

NEZ044-045-051>053-067-282100-
OMAHA AREA

CITY           SKY/WX    TMP DP  RH WIND       PRES   REMARKS
OMAHA EPPLEY   MOSUNNY   65  46  50 N13       30.20S
BLAIR          SUNNY     63  48  57 N12       30.20S
FREMONT        SUNNY     65  44  47 N10G16    30.21S
MILLARD        SUNNY     64  47  54 N7G18     30.20S
OFFUTT AFB     SUNNY     64  48  57 N8G18     30.19S
PLATTSMOUTH    SUNNY     64  43  47 N7        30.19S
WAHOO          FAIR      67  42  40 N12G18    30.20F
$$



USA.gov is the U.S. government's official web portal to all federal, state and local government web resources and services.